Air Resources Laboratory banner image
Air Resources Laboratory web site National Oceanic and Atmospheric Administration (NOAA)

mo roundup


Office: LSX

ASUS43 KLSX 181807
RWRMO

WEATHER SUMMARY FOR MISSOURI
NATIONAL WEATHER SERVICE SPRINGFIELD MO
1200 PM CST MON DEC 18 2017

NOTE: "FAIR" INDICATES FEW OR NO CLOUDS BELOW 12,000 FEET WITH NO
       SIGNIFICANT WEATHER AND/OR OBSTRUCTIONS TO VISIBILITY.
       CURRENT SKY AND/OR WEATHER CONDITIONS ARE NOT AVAILABLE FOR
       CHILLICOTHE AND FARMINGTON.

MOZ001>031-035>038-043-044-053-054-181900-
...NORTHERN AND WESTERN MISSOURI...

CITY           SKY/WX    TMP DP  RH WIND       PRES   REMARKS
KANSAS CTY INT SUNNY     48  37  65 SW13      30.03F
6HR MIN TEMP:  33; 6HR MAX TEMP:  48;

KANSAS C DTWN  SUNNY     50  36  58 SW10      30.05F
6HR MIN TEMP:  41; 6HR MAX TEMP:  50;

LEE'S SUMMIT   SUNNY     49  36  61 W13       30.05F
6HR MIN TEMP:  41; 6HR MAX TEMP:  49;

ST JOSEPH      SUNNY     49  37  63 SW14      30.01F
6HR MIN TEMP:  34; 6HR MAX TEMP:  49;

CHILLICOTHE      N/A     49  36  61 SW10G18   30.02F
6HR MIN TEMP:  37; 6HR MAX TEMP:  50;

KIRKSVILLE     SUNNY     48  37  65 SW14      30.00F
6HR MIN TEMP:  41; 6HR MAX TEMP:  48;


$$
MOZ066>068-077>081-088>096-101>105-181900-
...SOUTHWEST MISSOURI...

CITY           SKY/WX    TMP DP  RH WIND       PRES   REMARKS
SPRINGFIELD    CLOUDY    48  42  80 SW14      30.12F
6HR MIN TEMP:  44; 6HR MAX TEMP:  50;

JOPLIN         CLOUDY    46  42  86 SW16G23   30.15F
6HR MIN TEMP:  43; 6HR MAX TEMP:  46;

BRANSON        PTSUNNY   48  39  71 W7        30.16F

$$
MOZ032>034-039>042-045>050-055>058-069>072-181900-
...CENTRAL MISSOURI...

CITY           SKY/WX    TMP DP  RH WIND       PRES   REMARKS
COLUMBIA       CLOUDY    48  40  73 W20G25    30.06F
6HR MIN TEMP:  44; 6HR MAX TEMP:  48;

JEFFERSON CITY CLOUDY    50  39  66 W12       30.08F
6HR MIN TEMP:  46; 6HR MAX TEMP:  50;

ROLLA          PTSUNNY   50  41  71 W16       30.07F
6HR MIN TEMP:  43; 6HR MAX TEMP:  50;

SEDALIA        PTSUNNY   50  43  77 SW10G20   30.08F
6HR MIN TEMP:  45; 6HR MAX TEMP:  50;

WHITEMAN AFB   MOSUNNY   50  38  65 W15       30.02F
WARRENSBURG    SUNNY     48  37  66 SW12      30.07F
OSAGE BEACH    CLOUDY    48  40  73 W8G20     30.10F

$$
MOZ051-052-059>065-181900-
...EAST CENTRAL MISSOURI...

CITY           SKY/WX    TMP DP  RH WIND       PRES   REMARKS
ST LOUIS INTL  CLOUDY    49  41  74 W13       30.07F
6HR MIN TEMP:  46; 6HR MAX TEMP:  49; 6HR PCP: TRACE;

SPIRIT OF STL  CLOUDY    49  41  74 SW12      30.07F
6HR MIN TEMP:  46; 6HR MAX TEMP:  49;

ST CHARLES     CLOUDY    50  41  71 SW15      30.05F
6HR MIN TEMP:  46; 6HR MAX TEMP:  50;


$$
MOZ072>076-082>087-097>100-106>115-181900-
...SOUTH CENTRAL AND SOUTHEAST MISSOURI...

CITY           SKY/WX    TMP DP  RH WIND       PRES   REMARKS
CAPE GIRARDEAU CLOUDY    49  45  86 SW12      30.12F
6HR MIN TEMP:  44; 6HR MAX TEMP:  49;

FARMINGTON     CLOUDY    47  39  74 W12       30.10F
6HR MIN TEMP:  44; 6HR MAX TEMP:  47; 6HR PCP:  0.01;

POPLAR BLUFF   CLOUDY    49  46  90 SW7       30.13F FOG
6HR MIN TEMP:  45; 6HR MAX TEMP:  49;

WEST PLAINS    CLOUDY    49  40  71 SW12      30.13F
6HR MIN TEMP:  45; 6HR MAX TEMP:  49;


$$



Office: EAX ASUS43 KEAX 181810 RWREAX WEATHER ROUNDUP FOR EASTERN KANSAS AND NORTHWEST MISSOURI NATIONAL WEATHER SERVICE KANSAS CITY/PLEASANT HILL MO 1200 PM CST MON DEC 18 2017 KSZ040-057-103>105-MOZ028-029-037-043-181900- ...KANSAS CITY METROPOLITAN AREA... CITY SKY/WX TMP DP RH WIND PRES REMARKS K.C. INTL SUNNY 48 37 65 SW13 30.03F 6HR MIN TEMP: 33; 6HR MAX TEMP: 48; K.C. DOWNTOWN SUNNY 50 36 58 SW10 30.05F 6HR MIN TEMP: 41; 6HR MAX TEMP: 50; LEES SUMMIT SUNNY 49 36 61 W13 30.05F 6HR MIN TEMP: 41; 6HR MAX TEMP: 49; OLATHE - IXD SUNNY 48 37 65 SW14 30.07F 6HR MIN TEMP: 37; 6HR MAX TEMP: 48; OLATHE - OJC SUNNY 47 36 65 SW10 30.06F 6HR MIN TEMP: 37; 6HR MAX TEMP: 47; LAWRENCE SUNNY 50 36 58 SW13 30.06F $$ MOZ001>008-011>017-020>025-030>033-038>040-044>046-053-054-181900- ...NORTHERN AND CENTRAL MISSOURI... CITY SKY/WX TMP DP RH WIND PRES REMARKS ST. JOSEPH SUNNY 49 37 63 SW14 30.01F 6HR MIN TEMP: 34; 6HR MAX TEMP: 49; MOSBY N/A 50 34 53 W12G17 30.03F WARRENSBURG SUNNY 48 37 66 SW12 30.07F WHITEMAN AFB MOSUNNY 50 38 65 W15 30.02F 6HR MIN TEMP: 44; 6HR MAX TEMP: 50; CLINTON SUNNY 48 39 71 W10 30.10F SEDALIA PTSUNNY 50 43 77 SW10G20 30.08F 6HR MIN TEMP: 45; 6HR MAX TEMP: 50; WARSAW NOT AVBL CHILLICOTHE N/A 49 36 61 SW10G18 30.02F 6HR MIN TEMP: 37; 6HR MAX TEMP: 50; KIRKSVILLE SUNNY 48 37 65 SW14 30.00F 6HR MIN TEMP: 41; 6HR MAX TEMP: 48; $$ MOZ041-047>049-056>058-063>065-088>090-097-181900- ...EASTERN AND SOUTHERN MISSOURI... CITY SKY/WX TMP DP RH WIND PRES REMARKS ST. LOUIS INTL CLOUDY 49 41 74 W13 30.07F 6HR MIN TEMP: 46; 6HR MAX TEMP: 49; 6HR PCP: TRACE; SPIRIT OF STL CLOUDY 49 41 74 SW12 30.07F COLUMBIA CLOUDY 48 40 73 W20G25 30.06F JEFFERSON CITY CLOUDY 50 39 66 W12 30.08F ROLLA PTSUNNY 50 41 71 W16 30.07F OSAGE BEACH CLOUDY 48 40 73 W8G20 30.10F SPRINGFIELD CLOUDY 48 42 80 SW14 30.12F BRANSON PTSUNNY 48 39 71 W7 30.16F JOPLIN CLOUDY 46 42 86 SW16G23 30.15F WEST PLAINS CLOUDY 49 40 71 SW12 30.13F $$ IAZ060-094-KSZ022-034>040-054-083-096-NEZ052-066-093-181900- ...KANSAS...SOUTHEAST NEBRASKA AND IOWA... CITY SKY/WX TMP DP RH WIND PRES REMARKS TOPEKA SUNNY 50 36 58 SW8 30.04F 6HR MIN TEMP: 30; 6HR MAX TEMP: 51; MANHATTAN SUNNY 50 33 52 W10G17 30.04F EMPORIA SUNNY 52 33 48 SW12 30.08S CHANUTE MOSUNNY 48 41 76 SW14 30.13F WICHITA SUNNY 49 36 61 S14 30.09F OMAHA MOSUNNY 46 27 47 SW10 29.93F LINCOLN SUNNY 48 28 46 SW9 29.96F FALLS CITY SUNNY 47 33 58 W9 29.99F LAMONI SUNNY 46 35 65 SW17G30 29.94F DES MOINES MOSUNNY 44 34 67 SW21 29.90F $$